Current weather by "City, St" or "zip code"  
 

Current Conditions: Stillwater, Stillwater Regional Airport, OK

Overcast


52.0 F

Last Updated on Apr 23 2021, 5:53 am CDT
Humidity: 69%
Wind Speed: SE 10.4 mph
Barometer 29.88 in
Dewpoint: 42.1 F
Visibility: 10.00 mi
Precip: --
Heat Index: NA
Wind Chill: 48 F
Current conditions at:

Stillwater, Stillwater Regional Airport, OK (KSWO)

Lat: 36.16222 Lon: 97.08917

Local Radar Image active severe weather and emergency alerts image image weather storm and storm spotter reports image weather observation monitoring service image
Local
Radar
Active
Alerts
Storm Reports Obs
Monitoring

Sign-up For Email & Text Message Weather Alert Notification Services



Advertise Here

Observation History for Stillwater, Stillwater Regional Airport, OK


Time Wind
(mph)
Vis
(mi)
Weather Precip (in) Temperature (F) Relative
Humidity
Wind
Chill
(F)
Heat
Index
(F)
Pressure
Air Dwpt altimeter
(in)
sea level
(mb)
Rmks
5:53 am CDT SE 10.4 10.00 Overcast -- 52.0 42.1 69% 48 NA 29.88 1011.3
4:53 am CDT SE 12.7 10.00 Overcast -- 52.0 42.1 69% 48 NA 29.88 1011.5
3:53 am CDT SE 9.2 10.00 Overcast -- 52.0 42.1 69% 49 NA 29.90 1012.0
2:53 am CDT SE 8.1 10.00 Overcast -- 51.0 43.0 74% 48 NA 29.92 1012.6
1:53 am CDT SE 6.9 10.00 Overcast -- 51.0 43.0 74% 48 NA 29.94 1013.6
12:53 am CDT SE 6.9 10.00 Overcast -- 51.0 43.0 74% 48 NA 29.97 1014.5
11:53 pm CDT SE 5.8 10.00 Overcast -- 50.0 43.0 77% 48 NA 29.99 1015.1
10:53 pm CDT SE 5.8 10.00 Overcast -- 50.0 44.1 80% 48 NA 30.01 1016.1
9:53 pm CDT S 12.7 9.00 Overcast -- 51.0 42.1 71% 46 NA 30.01 1016.1
8:53 pm CDT S 12.7 10.00 Overcast -- 54.0 37.0 53% 50 NA 29.96 1014.2
7:53 pm CDT SE 11.5 10.00 Overcast -- 54.0 39.0 57% 51 NA 29.96 1014.2
6:53 pm CDT SE 15.0 10.00 Overcast Trace 54.0 39.9 59% 50 NA 29.97 1014.7
6:53 pm CDT SE 15.0 10.00 Overcast Trace 54.0 39.9 59% 50 NA 29.97 1014.7
5:53 pm CDT S 8.1 10.00 Light Rain 00.01 54.0 43.0 67% 52 NA 30.00 1015.8
4:53 pm CDT SE 9.2 10.00 Overcast Trace 57.0 37.0 47% 55 NA 30.00 1015.6
3:53 pm CDT S 15.0 10.00 Overcast -- 59.0 30.9 35% 56 NA 30.02 1016.3
2:53 pm CDT S 12.7 G 23.0 10.00 Mostly Cloudy -- 62.0 30.0 30% 60 NA 30.06 1017.8
1:53 pm CDT S 15.0 10.00 Overcast -- 59.0 30.0 33% 56 NA 30.10 1019.0
12:53 pm CDT SE 15.0 10.00 Overcast -- 58.0 30.0 35% 55 NA 30.14 1020.6
11:53 am CDT SE 13.8 10.00 Mostly Cloudy -- 57.0 30.0 36% 54 NA 30.17 1021.5
10:53 am CDT SE 11.5 10.00 Overcast -- 51.0 28.9 43% 47 NA 30.20 1022.7
9:53 am CDT SE 9.2 10.00 Overcast -- 48.0 28.9 48% 44 NA 30.21 1023.1
8:53 am CDT SE 10.4 10.00 A Few Clouds -- 48.0 28.9 48% 43 NA 30.22 1023.2
7:53 am CDT E 8.1 10.00 Fair -- 42.0 28.9 60% 37 NA 30.21 1022.9

Regional Weather Observation


Ponca City, Ponca City Municipal Airport, OK (KPNC)

Overcast
49.0 F

Blackwell-Tonkawa Municipal Airport, OK (KBKN)

Overcast
NULL F

Enid, Enid Woodring Regional Airport, OK (KWDG)

NULL
48.0 F

Vance Air Force Base / Enid, OK (KEND)

Overcast
48.0 F

Guthrie, Guthrie Municipal Airport, OK (KGOK)

Overcast
50.0 F

Cushing, Cushing Municipal Airport, OK (KCUH)

Overcast
51.0 F

Advertise Here


Advertise Here